Terug naar catalogus

STARLINK-30845

ActiefCommunicatieVLEO
NORAD 58207·PAYLOAD·🇺🇸 United States

Gelanceerd Nov 3, 2023 vanaf Cape Canaveral Space Force Station

Loading…

Volgende Passages (komende 24 uur)

TLE

VersSource: CelesTrak SupGP

Epoch: Sep 14, 2026, 20:57 UTC

1 58207C 23170B   26257.87340278  .00037180  00000+0  22625-2 0  2570
2 58207  42.9977 241.5535 0003979  87.3937 247.1683 15.09642293    15

Volg STARLINK-30845 in realtime met AllMySat

Download on the App Store